Temperature
17 17 17 17 17 17 17 17 17 17 17 17 17 17 17 17 17 17 17 17 17 17 17 17 17 17 16 16 16 16 16 16 16 16 16 16 16 16 16 16 16 16 16
17 17 17 17 17 17 17 17 17 17 17 17 17 17 17 17 17 17 17 17 17 17 17 17 17 17 17 17 16 16 16 16 16 16 16 16 16 16 16 16 16 16 16
17 17 17 17 17 17 17 17 17 17 17 17 17 17 17 17 17 17 17 17 17 17 17 17 17 17 16 16 16 16 16 16 16 16 16 16 16 16 16 16 16 16 16
17 17 17 17 17 17 17 17 17 17 17 17 17 17 17 17 17 17 17 16 16 16 17 17 17 17 17 16 16 16 16 16 16 16 16 16 16 16 16 16 16 16 15
17 17 17 17 17 17 17 17 17 17 17 17 17 17 17 17 17 17 17 17 17 16 16 17 17 17 17 16 16 16 16 16 16 16 16 16 16 16 15 15 15 15 15
17 17 17 17 17 17 17 17 17 17 17 17 17 17 17 17 17 17 17 17 16 16 16 16 16 16 17 17 16 16 16 16 16 16 16 16 16 16 15 15 15 15 15
17 17 17 17 17 17 17 17 17 17 17 17 17 17 17 17 17 17 17 17 17 16 16 16 16 16 16 16 16 16 16 16 16 16 16 16 16 16 16 15 15 15 15
17 17 17 17 17 17 17 17 17 17 17 17 17 18 18 17 17 17 17 17 17 17 16 16 16 16 16 16 16 16 16 16 16 16 16 16 16 16 16 15 15 15 15
17 17 17 17 17 17 17 17 17 17 17 17 17 18 18 18 18 17 17 17 17 17 16 16 16 16 16 16 16 16 16 16 16 16 15 15 15 15 15 15 15 15 15
17 17 17 17 17 17 17 17 17 17 17 17 17 17 17 18 18 18 17 17 17 16 16 16 16 16 16 16 16 16 16 16 16 16 15 15 15 15 15 15 15 15 15
17 17 17 17 17 17 17 17 17 17 17 17 17 17 17 17 17 18 18 17 17 17 16 16 16 16 16 16 16 16 16 16 16 16 16 15 15 15 15 15 15 15 14
17 18 18 18 17 17 17 17 17 17 17 17 17 17 17 17 18 18 18 17 17 17 16 16 16 16 16 16 16 16 16 16 16 15 15 15 15 15 15 15 15 14 14
18 18 18 18 18 18 17 17 17 17 17 17 17 17 17 17 17 17 17 17 17 17 16 16 16 16 16 16 16 16 16 16 16 15 15 15 15 15 15 15 14 14 14
18 18 18 18 18 18 17 17 17 17 17 17 17 17 17 17 17 17 17 17 17 17 17 16 16 16 16 16 16 16 16 16 15 15 15 15 15 15 15 14 14 14 14
18 18 18 18 18 18 18 17 17 17 17 17 17 17 17 17 17 17 17 17 17 17 17 17 16 16 16 15 16 15 15 15 15 15 15 15 15 15 14 14 14 14 14
18 18 18 18 18 17 18 18 17 17 17 17 17 17 17 17 17 17 17 17 17 17 17 17 16 16 15 15 15 15 15 15 15 15 15 15 15 14 14 14 14 14 14
18 18 18 18 18 17 17 17 17 17 17 17 17 16 17 17 16 16 16 16 16 16 16 16 16 16 15 15 15 15 15 15 15 15 15 15 14 14 14 14 14 14 14
18 18 18 18 17 17 17 17 17 17 17 17 16 16 16 16 16 16 16 16 16 16 16 16 16 16 15 15 15 15 14 14 14 15 14 14 14 14 14 14 14 13 13
18 18 17 17 17 17 17 17 17 17 16 16 16 16 16 16 16 16 16 16 16 16 16 15 15 15 15 15 15 15 14 14 14 14 14 14 14 14 14 13 13 13 13
18 17 17 17 17 17 17 17 17 17 17 16 16 16 16 16 16 16 16 16 16 16 15 15 15 15 15 15 15 14 14 14 14 14 14 14 14 14 14 13 13 13 13
17 17 17 17 17 17 17 17 17 17 16 16 16 16 16 16 16 16 16 16 15 15 15 15 15 15 15 15 14 14 14 14 14 14 14 14 14 14 14 14 13 13 13
17 17 17 17 17 17 17 17 17 17 16 16 16 16 16 16 16 16 16 16 15 15 15 15 15 15 14 14 14 14 14 14 13 14 13 13 13 13 13 14 14 13 13
17 17 17 17 17 17 17 17 17 16 16 16 16 16 16 16 16 16 16 16 15 15 15 15 15 15 15 14 14 14 14 13 13 13 13 13 13 13 13 13 13 13 13
17 16 16 16 16 16 16 16 16 16 16 16 16 16 16 16 15 15 15 15 15 15 15 15 15 15 14 14 14 14 14 13 13 13 13 13 13 13 13 13 13 13 13
16 16 16 16 16 16 16 16 16 15 15 15 15 15 15 15 15 15 15 15 15 15 15 15 15 15 15 14 14 13 13 13 13 13 13 13 13 13 13 13 13 13 13
16 16 16 16 16 16 16 16 15 15 15 15 15 15 15 15 15 15 15 15 15 15 14 14 14 14 14 14 14 13 13 13 13 13 13 13 13 13 13 13 12 12 12
Wind_Speed
6 6 5 4 5 5 5 4 5 5 5 5 5 5 4 5 5 5 9 12 11 10 9 8 8 8 8 8 8 8 8 8 8 8 8 8 8 7 8 8 8 7 7
6 6 5 4 4 4 4 4 5 4 4 4 4 4 4 5 5 4 6 9 10 9 9 8 8 7 7 8 8 8 8 8 7 7 8 8 8 8 8 8 8 8 8
6 5 4 4 4 5 5 4 5 4 4 4 4 4 4 4 4 4 4 5 7 10 9 8 8 7 7 8 8 8 8 7 7 8 8 8 8 8 8 8 8 8 8
5 4 4 4 4 4 4 4 4 4 3 3 3 2 3 3 4 4 5 5 5 6 9 9 8 7 7 7 7 8 8 8 8 8 8 9 9 9 9 8 8 7 8
5 4 3 4 4 4 4 4 5 4 4 3 3 3 2 2 3 4 4 5 5 5 5 9 9 7 7 7 7 7 7 7 8 9 9 9 9 9 9 9 9 8 8
5 4 4 5 4 4 3 3 4 3 3 3 2 2 2 2 2 2 3 4 4 5 5 5 7 8 8 7 6 6 6 6 7 8 8 8 8 9 9 9 9 9 9
5 4 3 4 4 3 4 4 4 4 3 3 2 2 2 3 2 2 2 2 4 4 4 5 5 5 7 9 7 7 6 5 5 6 7 7 7 8 8 9 9 9 9
4 5 3 4 4 4 4 4 4 2 3 3 2 2 2 3 2 2 3 3 3 3 4 5 4 5 4 5 7 7 6 5 5 5 5 6 7 7 8 9 9 9 9
4 3 3 3 3 4 4 4 4 4 3 3 2 2 1 1 2 3 2 2 3 3 3 4 5 5 5 4 5 8 7 6 6 5 4 5 6 6 6 6 7 8 8
4 4 4 3 3 3 3 4 4 3 4 4 3 2 2 1 2 2 3 4 4 3 3 3 4 4 5 5 4 4 6 7 6 6 6 5 5 6 6 6 6 7 7
4 4 4 4 4 4 4 4 3 4 4 4 4 3 3 3 4 3 2 3 3 3 3 3 3 3 4 5 5 5 7 6 6 5 6 5 5 5 5 6 6 7 7
4 5 5 5 5 4 4 4 4 6 5 5 4 4 4 4 4 3 3 3 3 3 3 3 3 4 5 5 5 6 7 7 6 6 5 5 5 5 6 6 6 6 6
5 5 5 5 5 5 5 5 5 5 5 6 6 5 5 5 4 4 4 3 3 3 3 4 4 5 5 5 5 8 8 8 8 7 6 6 6 6 6 6 5 5 5
4 4 5 6 6 5 5 5 5 5 5 6 6 6 5 5 4 4 4 4 4 4 4 4 3 4 5 5 5 8 7 9 9 8 8 7 7 7 7 6 6 5 5
4 5 5 6 6 6 5 5 5 5 5 6 6 7 6 5 5 5 5 5 5 5 4 4 4 4 4 4 6 6 6 8 9 9 9 9 8 8 8 7 6 6 5
4 5 5 6 6 6 5 5 5 5 5 5 5 5 6 6 5 6 6 5 6 6 5 2 3 3 4 4 6 6 6 8 10 11 10 9 9 9 9 8 7 7 6
5 5 5 5 5 5 5 5 6 5 6 6 6 6 7 7 6 5 5 6 6 6 6 4 3 3 4 5 5 6 6 7 7 11 11 11 10 10 10 10 9 8 7
5 5 5 5 6 5 5 6 6 6 7 7 7 7 7 6 6 6 6 6 5 5 6 6 4 4 5 6 5 6 6 6 6 9 12 12 12 11 11 11 10 10 9
5 5 5 5 5 5 5 6 6 7 7 7 7 7 7 7 7 6 6 6 6 6 6 6 6 4 5 5 6 6 7 6 7 8 11 12 13 13 12 12 12 11 11
5 5 5 5 5 5 6 6 6 6 7 6 7 7 7 7 8 8 7 7 7 6 6 7 6 5 5 5 5 6 6 6 6 6 7 9 12 14 15 15 14 13 12
6 6 5 5 5 5 5 6 6 7 7 7 7 7 7 6 6 7 7 6 6 6 6 6 6 5 5 5 6 6 6 6 6 6 6 7 8 9 11 15 16 14 14
5 6 6 6 6 5 3 3 6 6 6 7 7 7 7 6 7 7 7 6 6 7 7 7 6 6 7 7 6 6 6 6 6 5 7 7 8 8 9 11 13 16 16
5 6 6 6 6 5 4 5 6 7 7 7 7 7 6 5 6 6 7 8 8 8 8 9 9 9 8 8 8 9 8 8 8 5 6 8 8 9 9 10 14 17 17
4 4 5 5 5 5 4 5 6 8 8 7 7 7 7 7 6 6 7 8 9 9 10 10 10 10 9 7 8 9 9 9 9 8 8 9 8 9 9 9 14 18 19
4 4 4 5 5 4 3 4 6 6 6 7 7 7 7 7 5 5 8 8 9 9 9 10 10 9 7 8 8 7 8 8 9 9 8 8 8 8 9 9 11 18 19
4 4 4 4 5 4 2 4 6 6 6 7 6 6 6 6 5 6 9 9 10 9 8 8 9 10 11 11 12 11 10 10 9 8 7 8 8 7 7 8 8 10 13
Wind_Direction
126 125 121 121 124 127 135 126 115 115 117 122 126 125 130 129 129 134 134 150 163 169 173 173 171 175 177 181 187 191 194 194 197 197 197 201 208 213 212 213 213 214 214
123 127 133 132 129 132 119 121 120 126 130 120 118 115 125 121 123 134 138 150 163 168 172 175 177 177 182 188 190 194 195 196 199 198 202 206 212 214 215 218 218 219 218
128 132 133 139 131 132 131 131 129 133 141 135 128 129 131 132 135 142 153 156 159 167 172 178 184 186 189 194 196 200 201 199 200 203 208 213 218 217 214 215 216 218 221
135 142 143 139 140 146 138 137 145 139 140 138 130 134 134 142 154 159 164 165 165 158 165 177 186 195 197 198 202 204 207 207 206 209 214 220 221 218 213 213 214 217 221
144 151 145 132 151 146 145 154 136 143 142 132 134 141 149 162 167 170 165 169 164 170 170 164 180 194 196 198 203 208 213 211 211 215 220 221 219 215 211 213 214 216 220
156 159 157 151 160 151 146 135 133 143 144 143 147 126 150 167 176 166 173 165 170 182 186 180 181 181 184 189 200 207 210 213 214 219 221 221 216 211 211 214 216 219 220
158 169 162 156 170 159 154 152 150 150 154 155 158 148 151 155 151 168 178 176 174 185 190 191 195 186 179 187 197 203 207 211 215 213 213 216 213 213 214 216 217 219 221
169 170 170 179 168 162 166 162 170 176 178 186 203 197 178 162 172 174 177 186 185 184 193 195 192 194 207 184 174 188 199 202 197 194 204 213 209 209 214 219 220 220 222
173 171 170 187 177 189 175 183 192 199 200 199 228 254 238 181 162 165 182 193 193 197 205 190 196 194 204 202 178 176 186 191 196 200 203 201 200 206 210 212 215 219 223
176 176 180 184 193 196 181 203 201 210 211 208 200 236 271 306 226 178 189 190 197 214 227 223 212 204 205 200 177 152 168 186 198 203 203 201 200 201 205 209 210 217 224
190 193 189 192 199 205 203 218 211 222 218 225 222 207 208 218 238 231 205 196 197 211 218 225 225 219 209 205 198 176 170 184 191 192 195 193 194 200 208 211 211 215 220
191 194 195 200 210 213 207 217 221 221 229 232 241 239 228 226 226 232 230 224 218 209 214 222 225 218 214 207 199 163 174 187 190 187 193 200 204 210 211 210 214 216 216
194 190 201 205 213 213 216 221 222 234 229 225 231 239 243 244 251 250 245 241 240 224 217 222 221 216 215 207 190 174 185 188 190 193 200 205 208 209 209 211 211 211 216
204 190 202 208 213 217 221 220 230 228 228 230 234 239 245 245 246 244 246 249 249 239 221 222 217 213 213 205 175 187 187 184 193 197 201 204 204 204 206 207 209 213 216
207 196 206 210 213 216 223 227 236 235 236 236 238 234 240 241 242 245 242 243 253 258 248 217 210 202 198 188 173 200 199 184 193 199 203 203 203 205 205 204 205 206 211
214 211 217 220 222 221 220 226 231 229 238 242 250 255 253 249 243 241 246 247 250 262 264 237 213 198 189 189 181 203 200 181 194 200 203 206 207 206 206 206 207 209 214
218 220 221 224 226 229 226 225 236 230 234 240 242 243 246 256 253 248 244 245 243 247 253 254 231 199 197 208 191 208 212 213 204 195 204 208 210 211 211 211 212 215 217
221 220 222 223 226 230 230 231 239 241 238 239 240 246 251 246 244 254 250 246 243 242 248 246 236 216 211 209 204 217 218 221 220 191 199 209 212 212 214 215 217 218 220
224 227 228 233 235 236 235 237 243 248 247 246 243 243 247 247 246 245 248 249 246 239 240 241 235 222 221 212 210 221 225 228 227 199 198 206 209 212 215 218 220 222 223
223 229 230 234 239 242 239 240 239 244 249 250 248 245 244 245 246 245 242 245 249 247 238 240 236 227 222 209 218 225 227 224 229 219 208 210 210 214 217 219 220 222 225
220 221 226 232 241 243 245 241 242 241 245 249 248 248 247 248 258 256 258 247 242 244 239 238 237 235 231 216 225 229 236 235 231 228 226 221 212 216 213 217 219 221 225
223 222 230 232 237 240 211 219 247 250 249 248 249 248 244 236 233 233 251 258 256 246 245 245 241 239 237 233 232 235 235 237 242 222 231 237 226 227 222 222 206 209 218
221 226 230 231 234 239 206 209 232 249 251 251 250 250 254 241 228 237 223 224 238 246 251 253 255 252 246 235 232 234 233 239 249 238 233 243 234 237 235 224 195 203 212
213 220 229 235 237 242 209 223 234 241 251 252 250 247 250 253 245 242 237 234 238 234 232 237 248 254 254 245 234 239 244 243 246 241 230 247 244 242 241 229 197 202 209
212 221 228 233 240 248 211 218 238 245 247 250 249 247 249 248 231 234 240 241 244 243 227 224 236 242 246 240 237 241 238 239 247 243 227 242 249 245 241 235 210 200 209
207 220 226 232 240 253 213 210 235 247 252 254 249 245 236 246 230 223 238 241 244 246 247 236 232 233 235 230 221 231 236 240 246 247 224 230 244 241 245 233 222 209 211
Height
1539 1541 1542 1544 1545 1547 1548 1549 1551 1553 1554 1556 1558 1559 1561 1562 1563 1564 1565 1565 1567 1568 1569 1570 1572 1572 1573 1574 1575 1576 1577 1577 1578 1579 1579 1580 1580 1581 1581 1582 1583 1583 1584
1541 1543 1544 1546 1547 1549 1550 1551 1553 1554 1556 1557 1558 1560 1561 1562 1563 1564 1565 1566 1567 1568 1569 1570 1571 1572 1572 1573 1574 1575 1575 1576 1577 1577 1578 1578 1579 1579 1580 1580 1581 1581 1582
1543 1544 1546 1548 1549 1551 1551 1553 1554 1556 1557 1559 1560 1561 1562 1562 1564 1564 1566 1567 1568 1568 1569 1570 1570 1571 1572 1572 1573 1574 1574 1575 1575 1576 1576 1577 1577 1577 1578 1578 1579 1579 1580
1544 1545 1547 1549 1550 1552 1553 1554 1556 1557 1558 1559 1560 1561 1562 1563 1564 1564 1566 1566 1567 1568 1568 1569 1569 1570 1571 1571 1572 1572 1573 1573 1574 1574 1574 1575 1575 1575 1576 1576 1577 1577 1578
1546 1547 1548 1549 1551 1552 1554 1555 1556 1557 1559 1560 1561 1561 1562 1563 1564 1565 1565 1566 1567 1567 1568 1568 1568 1569 1570 1570 1571 1571 1571 1572 1572 1572 1572 1573 1573 1573 1573 1574 1574 1575 1576
1546 1548 1549 1550 1552 1553 1554 1555 1556 1557 1559 1560 1561 1562 1562 1563 1563 1564 1565 1565 1566 1567 1567 1568 1568 1568 1568 1569 1569 1569 1570 1570 1570 1570 1570 1570 1570 1571 1571 1571 1572 1572 1573
1547 1548 1550 1551 1552 1554 1554 1556 1557 1558 1559 1560 1561 1562 1562 1562 1563 1563 1564 1565 1565 1565 1566 1566 1567 1567 1567 1567 1567 1568 1568 1568 1568 1568 1568 1568 1568 1568 1568 1569 1569 1570 1570
1547 1549 1549 1551 1552 1553 1554 1555 1556 1558 1559 1560 1561 1561 1562 1564 1563 1563 1563 1564 1564 1564 1565 1565 1565 1565 1566 1566 1566 1566 1566 1566 1566 1566 1565 1565 1565 1566 1566 1566 1566 1567 1567
1547 1548 1549 1551 1551 1553 1554 1555 1556 1557 1558 1559 1560 1561 1561 1561 1562 1563 1562 1563 1563 1563 1563 1563 1563 1564 1564 1564 1564 1564 1564 1564 1564 1564 1563 1563 1563 1563 1563 1563 1564 1564 1564
1547 1548 1549 1550 1551 1552 1553 1554 1556 1556 1557 1558 1559 1559 1560 1560 1561 1561 1562 1561 1561 1561 1561 1562 1562 1562 1562 1562 1562 1562 1562 1562 1562 1562 1562 1562 1561 1561 1561 1561 1561 1561 1561
1546 1547 1548 1549 1550 1551 1552 1553 1554 1555 1556 1557 1557 1558 1558 1558 1559 1559 1559 1560 1560 1559 1559 1559 1560 1560 1560 1560 1560 1560 1560 1560 1560 1560 1560 1560 1559 1559 1559 1559 1559 1559 1559
1545 1546 1547 1548 1549 1550 1551 1551 1552 1553 1553 1554 1555 1556 1556 1557 1557 1557 1556 1556 1557 1557 1557 1557 1557 1557 1557 1558 1558 1558 1558 1558 1558 1558 1558 1558 1557 1557 1557 1557 1556 1556 1556
1544 1544 1546 1546 1547 1548 1548 1549 1550 1551 1551 1551 1552 1553 1554 1554 1555 1555 1554 1554 1554 1555 1554 1555 1554 1555 1555 1555 1555 1555 1555 1555 1555 1555 1555 1555 1555 1555 1555 1554 1554 1554 1554
1543 1543 1544 1544 1545 1546 1547 1547 1548 1548 1549 1549 1549 1550 1551 1551 1552 1552 1552 1552 1552 1552 1552 1552 1552 1552 1552 1553 1552 1552 1553 1553 1553 1553 1553 1553 1553 1552 1552 1552 1551 1551 1551
1541 1541 1542 1543 1543 1544 1545 1545 1546 1546 1546 1547 1547 1547 1548 1548 1549 1549 1549 1550 1550 1549 1549 1549 1549 1549 1549 1549 1549 1550 1550 1550 1550 1550 1550 1550 1550 1550 1549 1549 1549 1548 1548
1539 1539 1540 1541 1542 1542 1542 1543 1543 1543 1544 1544 1544 1544 1545 1546 1546 1546 1546 1546 1547 1547 1546 1546 1546 1546 1546 1546 1546 1547 1547 1547 1547 1547 1547 1547 1546 1546 1546 1546 1546 1546 1545
1536 1537 1538 1539 1539 1540 1540 1540 1541 1541 1541 1541 1542 1542 1542 1542 1542 1543 1543 1543 1543 1543 1543 1543 1543 1543 1542 1543 1543 1543 1544 1543 1543 1543 1543 1543 1543 1543 1543 1542 1542 1542 1542
1534 1535 1536 1536 1537 1537 1537 1538 1538 1539 1538 1538 1539 1539 1539 1539 1539 1539 1539 1539 1539 1539 1540 1539 1539 1539 1539 1539 1539 1540 1541 1541 1540 1539 1539 1539 1539 1539 1539 1539 1539 1539 1539
1531 1532 1533 1533 1534 1534 1534 1535 1535 1535 1536 1536 1536 1536 1536 1536 1536 1536 1535 1536 1536 1536 1536 1536 1536 1536 1536 1536 1536 1537 1537 1537 1537 1536 1535 1535 1535 1535 1536 1536 1535 1535 1535
1528 1529 1530 1530 1530 1531 1531 1531 1531 1532 1532 1532 1532 1532 1532 1532 1532 1532 1532 1532 1532 1532 1532 1533 1533 1533 1533 1532 1533 1533 1534 1533 1533 1533 1532 1531 1531 1531 1531 1531 1531 1531 1531
1525 1525 1526 1526 1527 1527 1528 1527 1528 1528 1528 1528 1528 1528 1528 1528 1528 1528 1529 1529 1528 1528 1529 1529 1530 1530 1530 1529 1529 1529 1530 1530 1529 1529 1528 1528 1527 1527 1527 1527 1527 1527 1527
1521 1522 1522 1523 1523 1524 1524 1523 1524 1524 1524 1524 1524 1524 1525 1524 1524 1524 1524 1524 1524 1524 1525 1526 1526 1526 1526 1526 1526 1526 1526 1526 1525 1525 1524 1524 1524 1523 1523 1522 1522 1522 1522
1518 1518 1519 1519 1519 1520 1519 1519 1520 1520 1520 1520 1520 1520 1521 1521 1520 1520 1520 1520 1520 1519 1520 1521 1522 1521 1521 1521 1521 1521 1521 1521 1521 1521 1520 1520 1519 1519 1518 1518 1517 1517 1517
1514 1515 1515 1516 1516 1516 1516 1516 1516 1516 1517 1516 1516 1516 1517 1516 1516 1516 1515 1515 1515 1515 1515 1515 1516 1516 1517 1516 1516 1516 1516 1516 1515 1516 1515 1515 1514 1514 1514 1513 1512 1512 1512
1511 1511 1512 1512 1512 1512 1512 1512 1512 1512 1512 1512 1512 1512 1512 1511 1511 1511 1511 1510 1509 1509 1510 1509 1510 1510 1510 1510 1511 1511 1511 1511 1510 1510 1510 1510 1509 1509 1508 1508 1507 1506 1506
1508 1509 1509 1509 1509 1508 1508 1508 1508 1508 1508 1508 1508 1507 1506 1507 1506 1506 1505 1505 1504 1504 1505 1504 1504 1504 1504 1504 1504 1504 1505 1505 1505 1505 1504 1504 1504 1504 1503 1502 1502 1501 1501